Terminal Aerodrome Forecast
Issued by NWS

Home | Current Version | Previous Version | Text Only | Print | Product List | Glossary On
Versions: 1 2 3 4 5 6 7 8 9 10 11 12 13 14 15 16 17 18 19 20 21 22 23 24 25 26 27 28 29 30 31 32 33 34 35 36 37 38 39 40 41 42 43 44 45 46 47 48 49 50
000
FTUS45 KGJT 070251 AAA
TAFTEX
TAF AMD
KTEX 070251Z 0703/0724 15008G15KT P6SM VCSH SCT015 BKN050
      TEMPO 0703/0704 -SHRA BKN015 OVC035
     FM070600 17005KT P6SM VCSH SCT045 BKN070
      TEMPO 0706/0710 -SHRA BKN045
     FM071700 15008G15KT P6SM SCT070 BKN100=

USA.gov is the U.S. government's official web portal to all federal, state and local government web resources and services.